Regional Weather Roundup
Issued by NWS Northern Indiana

Home | Current Version | Previous Version | Text Only | Print | Product List | Glossary Off
Versions: 1 2 3 4 5 6 7 8 9 10 11 12 13 14 15 16 17 18 19 20 21 22 23 24 25 26 27 28 29 30 31 32 33 34 35 36 37 38 39 40 41 42 43 44 45 46 47 48 49 50

000
ASUS43 KIWX 291410
RWRIWX

KIWX WEATHER ROUNDUP
NATIONAL WEATHER SERVICE NORTHERN INDIANA
1000 AM EDT SUN MAR 29 2015

NOTE: "FAIR" INDICATES FEW OR NO CLOUDS BELOW 12,000 FEET WITH NO
SIGNIFICANT WEATHER AND/OR OBSTRUCTIONS TO VISIBILITY.

* THESE STATIONS ARE NOT UNDER NWS QUALITY CONTROL. THEY ALSO MAY NOT
  REPORT WEATHER SUCH AS PRECIPITATION OR FOG.

INZ001>027-291500-
NORTHERN INDIANA

CITY           SKY/WX    TMP DP  RH WIND       PRES   REMARKS
VALPARAISO     PTSUNNY   32  19  58 S14       30.16F WCI  22
MICHIGAN CITY* PTSUNNY   32  14  47 S18G24    30.17F WCI  20
LAPORTE*       PTSUNNY   33  21  60 S13G21    30.17F WCI  24
KNOX*            N/A     32   3  29 S20       30.18F WCI  20
SOUTH BEND     MOSUNNY   34  17  50 S16G22    30.18F WCI  24
ELKHART*       MOSUNNY   32  14  47 S9G18     30.20S WCI  24
GOSHEN         MOSUNNY   34  18  52 S18G24    30.20R WCI  23
MONTICELLO*    MOSUNNY   33  19  55 S13       30.20F WCI  24
LOGANSPORT*    MOSUNNY   32  19  59 S15       30.24R WCI  22
ROCHESTER*     MOSUNNY   36  21  55 S16G22    30.22F
WARSAW*        MOSUNNY   32  19  59 S12G17    30.22R WCI  23
ANGOLA*        SUNNY     30  18  59 S16       30.21S WCI  19
FORT WAYNE     MOSUNNY   32  20  61 S15       30.26S WCI  22
HUNTINGTON*    SUNNY     32  14  46 S9G18     30.25R WCI  24
PERU/GRISSOM   PTSUNNY   33  18  53 S18       30.22R WCI  22
MARION*        MOSUNNY   32  18  56 S17       30.26R WCI  21

$$
INZ028>050-291500-
CENTRAL INDIANA

CITY           SKY/WX    TMP DP  RH WIND       PRES   REMARKS
LAFAYETTE      SUNNY     34  17  50 S13G20    30.22S WCI  25
KOKOMO*          N/A     32  19  59 S20       30.24R WCI  20
MUNCIE*        SUNNY     32  17  54 S14       30.25F WCI  22
INDIANAPOLIS   PTSUNNY   34  17  50 S12       30.25S WCI  25

$$
MIZ043>046-050>051-056>058-064>065-071>073-077>080-291500-
SOUTHWEST LOWER MICHIGAN

CITY           SKY/WX    TMP DP  RH WIND       PRES   REMARKS
BATTLE CREEK   MOSUNNY   33  16  49 S15G26    30.18S WCI  23
BENTON HARBOR  PTSUNNY   33  17  51 S13G23    30.15F WCI  24
COLDWATER*     SUNNY     32  16  51 S10       30.20S WCI  24
HILLSDALE*     SUNNY     31  17  55 SW12      30.20S WCI  22
HOLLAND        PTSUNNY   34  18  52 S17       30.14F WCI  23
GRAND RAPIDS   PTSUNNY   33  17  51 S13       30.15F WCI  24
KALAMAZOO      MOSUNNY   32  17  54 S16       30.19R WCI  21
STURGIS*       MOSUNNY   32  18  55 S14       30.19S WCI  22
THREE RIVERS*  FAIR      33  19  57 SW13      30.20F WCI  23

$$
OHZ001>008-015>018-024>025-291500-
NORTHWEST OHIO

CITY           SKY/WX    TMP DP  RH WIND       PRES   REMARKS
WAUSEON*       FAIR      32  19  59 S15G21    30.25F WCI  22
DEFIANCE       SUNNY     32  20  61 S12       30.26F WCI  23
FINDLAY        SUNNY     32  19  58 S16       30.27F WCI  21
TOLEDO EXPRESS SUNNY     31  16  54 S14G20    30.26F WCI  21
TOLEDO METCALF SUNNY     33  17  51 SW15      30.29F WCI  23
LIMA           SUNNY     31  18  58 S15G24    30.27F WCI  20

$$
AND FOR LAKE MICHIGAN COASTAL AND OPEN LAKE BUOY OBSERVATIONS

STATION/POSITION TEMP    WIND        PRES    VSBY  WAVE
                 AIR SEA DIR/SP/G                  HT/PER
                 (F)     (DEG/KT/KT) (MB)    (MI)  (FT/S)
CALUMET HARBOR           170/ 17/ 27 1018.4F
MICHIGAN CITY     31     160/ 17/ 22   N/A
BURNS HARBOR      34     180/ 18     1020.7F
SAINT JOSEPH      33     160/  9/ 17 1021.0F

$$
&&


USA.gov is the U.S. government's official web portal to all federal, state and local government web resources and services.